Powrót do katalogu

ORBCOMM FM 13

AktywnyŁącznośćLEO
NORAD 25420·PAYLOAD·🇺🇸 United States

Wystrzelony Aug 2, 1998 z Cape Canaveral Space Force Station

Loading…

Następne Przeloty (najbliższe 24 godziny)

TLE

ŚwieżeSource: Space-Track

Epoka: Sep 13, 2026, 20:48 UTC

1 25420U 98046H   26256.86728218  .00000605  00000-0  24104-3 0  9998
2 25420  44.9962 192.0815 0005882  17.4217 342.6832 14.38753351468556

Śledź ORBCOMM FM 13 w czasie rzeczywistym z AllMySat

Download on the App Store